COSMOS 1275 DEB, 14925

Orbit data source: Space-Track

COSMOS 1275 DEB, 14925 is space debris in LEO originally from a launch on Thu, 04 Jun 1981 UTC launched from the Plesetsk Missile And Space Complex (PKMTR). Debris objects in space refer to the collection of defunct objects orbiting the Earth. Examples of debris include non-operational satellites, rocket bodies, and fragments generated from explosions, collisions, or faulty payload assembly.

Loading next visibility...
Identifier
14925, 1981-053JX
Orbit
LEO
Country
Flag of CISCIS
Related business
Manufacturer
Unknown
Mission
Spacecraft
Bus & Motor
Unknown
Mass
Unknown
Launch date (UTC)
1981-06-04 (44 years ago)
Launch vehicle
Unknown
Launch site
Plesetsk Missile And Space Complex (PKMTR)
Object type
Payload
Rocket body
Debris
Shape & HBR
Unknown shape, 0.1 m
Radar Cross Section
Small (<0.1 m²)

Expand to show TLE details & history
Last TLE update: 19 hours ago

TLE from 19 hours ago
0 COSMOS 1275 DEB
1 14925U 81053JX  25286.29562362  .00003649  00000-0  13314-2 0  9992
2 14925  82.8520 129.6374 0017015  92.5892 267.7245 14.32780596245244
Epoch: 2025-10-13T07:05Z
TLE epoch observation values (Epoch: 2025-10-13T07:05:41.880Z)
Latitude
0.00005°
Longitude
1.11246°
Altitude
785.934 km
Speed
7.461 km/s
True Right ascension
08h 38m 32s
True Declination
0° 00' 00"
Sunlit
Object was in daylight at epoch
Visualization orbit readout
Latitude
Unknown
Longitude
Unknown
Altitude
Unknown
Speed
Unknown
Apparent Right ascension
Unknown
Apparent Declination
Unknown
Sunlit
N/A
Visualization observer readout
Local Sidereal Time
21:06:32
Azimuth
Unknown
Elevation
Unknown
Doppler factor
Unknown
Orbital elements
Apogee altitude
791.703 km
Perigee altitude
767.346 km
Semi-major axis
7,157.661 km
Eccentricity
0.0017
Inclination
82.852°
RAAN
129.6374°
Arg. of periapsis
92.5892°
True anomaly
267.52969°
Mean anomaly
267.7245°
Eccentric anomaly
267.62709°
Mean motion
3.58415 °/min
Orbital period
100.44 mins
BSTAR
0.0013314
Loading maneuver chart data...
Computing Atmospheric mass density...
Loading historical data...
Loading historical data...
Loading historical data...
Loading historical data...
Loading historical data...
Loading historical data...
Loading historical data...

Documentation

Showing up to 5 results
|